Location: ??
(35.3149°N, 139.6204°E)
Time: 11:06:09
(UTC+00:00)

Lacrosse 5 - Pass Details

Date: 03 August 2024
Orbit: 714 x 724 km, 57.0° (Epoch: 09 March)

Event Time Altitude Azimuth Distance (km) Brightness Sun altitude
Rises 13:24:43 0° 309° (NW) 3,118 6.0 -33.8°
Reaches altitude 10° 13:27:19 10° 299° (WNW) 2,196 4.9 -34.1°
Enters shadow 13:29:03 19° 285° (WNW) 1,664 4.0 -34.2°
